User: anonymous   Login
Location: Lafig�re
(44.4503°N, 4.0357°E)
Time: 21:01:28
(UTC+00:00)
Language:

Altair - Orbit

View from above orbital plane
View from above orbital plane
View from above satellite
View from above satellite

Ground track
Ground track

The orbit data is extracted from the following two-line orbital elements,

1 00050U 60009B   21018.79620388 -.00000054  00000-0  28557-3 0  9995
2 00050  47.2291 172.9185 0113484 247.2803 111.5958 12.20114366696515
Epoch (UTC): 18 January 2021 19:06:32
Eccentricity: 0.0113484
inclination: 47.2291°
perigee height: 1501 km
apogee height: 1682 km
right ascension of ascending node: 172.9185°
argument of perigee: 247.2803°
revolutions per day: 12.20114366
mean anomaly at epoch: 111.5958°
orbit number at epoch: 69651

The dashed part of the orbit path shows where the satellite is in the earth's shadow,  

DLR